Time,TemperatureF,DewpointF,PressureIn,WindDirection,WindDirectionDegrees,WindSpeedMPH,WindSpeedGustMPH,Humidity,HourlyPrecipIn,Conditions,Clouds,dailyrainin,SolarRadiationWatts/m^2,SoftwareType,DateUTC
2013-07-29 00:02:00,68.6,68.0,30.01,SE,132,0.0,0.0,98,0.00,,,0.00,0,Wunderground v.1.15,2013-07-29 04:02:00,
2013-07-29 00:04:00,68.5,67.9,30.01,SE,132,0.0,0.0,98,0.00,,,0.00,0,Wunderground v.1.15,2013-07-29 04:04:00,
2013-07-29 00:05:00,68.5,67.9,30.01,SE,132,0.0,0.0,98,0.00,,,0.00,0,Wunderground v.1.15,2013-07-29 04:05:00,
2013-07-29 00:06:00,68.4,67.8,30.02,SE,132,0.0,0.0,98,0.00,,,0.00,0,Wunderground v.1.15,2013-07-29 04:06:00,
2013-07-29 00:07:00,68.4,67.8,30.02,SE,132,0.0,0.0,98,0.00,,,0.00,0,Wunderground v.1.15,2013-07-29 04:07:00,
2013-07-29 00:12:00,68.1,67.5,30.01,SE,132,0.0,0.0,98,0.00,,,0.00,0,Wunderground v.1.15,2013-07-29 04:12:00,
2013-07-29 00:18:00,67.9,67.3,30.01,SE,132,0.0,0.0,98,0.00,,,0.00,0,Wunderground v.1.15,2013-07-29 04:18:00,
2013-07-29 00:23:00,67.7,66.8,30.01,SE,132,0.0,0.0,97,0.00,,,0.00,0,Wunderground v.1.15,2013-07-29 04:23:00,
2013-07-29 00:28:00,67.5,66.9,30.01,SE,132,0.0,0.0,98,0.00,,,0.00,0,Wunderground v.1.15,2013-07-29 04:28:00,
2013-07-29 00:33:00,67.4,66.8,30.01,SE,132,0.0,0.0,98,0.00,,,0.00,0,Wunderground v.1.15,2013-07-29 04:33:00,
2013-07-29 00:39:00,67.2,66.6,30.01,SE,132,0.0,0.0,98,0.00,,,0.00,0,Wunderground v.1.15,2013-07-29 04:39:00,
2013-07-29 00:45:00,67.0,66.4,30.01,SE,132,0.0,0.0,98,0.00,,,0.00,0,Wunderground v.1.15,2013-07-29 04:45:00,
2013-07-29 00:51:00,66.9,66.3,30.01,SE,132,0.0,0.0,98,0.00,,,0.00,0,Wunderground v.1.15,2013-07-29 04:51:00,
2013-07-29 00:56:00,66.8,66.2,30.01,SE,132,0.0,0.0,98,0.00,,,0.00,0,Wunderground v.1.15,2013-07-29 04:56:00,
2013-07-29 01:02:00,66.7,66.1,30.01,SE,132,0.0,0.0,98,0.00,,,0.00,0,Wunderground v.1.15,2013-07-29 05:02:00,
2013-07-29 01:08:00,66.6,66.0,30.01,SE,132,0.0,0.0,98,0.00,,,0.00,0,Wunderground v.1.15,2013-07-29 05:08:00,
2013-07-29 01:13:00,66.6,66.0,30.01,SE,132,0.0,0.0,98,0.00,,,0.00,0,Wunderground v.1.15,2013-07-29 05:13:00,
2013-07-29 01:19:00,66.6,66.0,30.01,SE,132,0.0,0.0,98,0.00,,,0.00,0,Wunderground v.1.15,2013-07-29 05:19:00,
2013-07-29 01:24:00,66.6,66.0,30.02,SE,132,0.0,0.0,98,0.00,,,0.00,0,Wunderground v.1.15,2013-07-29 05:24:00,
2013-07-29 01:29:00,66.8,66.5,30.01,SE,132,0.0,0.0,99,0.00,,,0.00,0,Wunderground v.1.15,2013-07-29 05:29:00,
2013-07-29 01:35:00,66.7,66.4,30.01,SE,132,0.0,0.0,99,0.00,,,0.00,0,Wunderground v.1.15,2013-07-29 05:35:00,
2013-07-29 01:41:00,66.7,66.4,30.01,SE,132,0.0,0.0,99,0.00,,,0.00,0,Wunderground v.1.15,2013-07-29 05:41:00,
2013-07-29 01:47:00,66.7,66.4,30.01,SE,132,0.0,0.0,99,0.00,,,0.00,0,Wunderground v.1.15,2013-07-29 05:47:00,
2013-07-29 01:53:00,66.7,66.4,30.01,SE,132,0.0,0.0,99,0.00,,,0.00,0,Wunderground v.1.15,2013-07-29 05:53:00,
2013-07-29 01:58:00,66.7,66.4,30.01,SE,132,0.0,0.0,99,0.00,,,0.00,0,Wunderground v.1.15,2013-07-29 05:58:00,
2013-07-29 02:03:00,66.5,65.9,30.01,SE,132,0.0,0.0,98,0.00,,,0.00,0,Wunderground v.1.15,2013-07-29 06:03:00,
2013-07-29 02:09:00,66.5,66.2,30.01,SE,132,0.0,0.0,99,0.00,,,0.00,0,Wunderground v.1.15,2013-07-29 06:09:00,
2013-07-29 02:15:00,66.3,66.0,30.01,SE,132,0.0,0.0,99,0.00,,,0.00,0,Wunderground v.1.15,2013-07-29 06:15:00,
2013-07-29 02:20:00,66.1,65.8,30.01,SE,132,0.0,0.0,99,0.00,,,0.00,0,Wunderground v.1.15,2013-07-29 06:20:00,
2013-07-29 02:26:00,66.2,65.9,30.01,SE,132,0.0,0.0,99,0.00,,,0.00,0,Wunderground v.1.15,2013-07-29 06:26:00,
2013-07-29 02:31:00,66.2,65.9,30.00,SE,132,0.0,0.0,99,0.00,,,0.00,0,Wunderground v.1.15,2013-07-29 06:31:00,
2013-07-29 02:36:00,66.2,65.9,30.00,SE,132,0.0,0.0,99,0.00,,,0.00,0,Wunderground v.1.15,2013-07-29 06:36:00,
2013-07-29 02:41:00,66.4,66.1,30.00,SE,132,0.0,0.0,99,0.00,,,0.00,0,Wunderground v.1.15,2013-07-29 06:41:00,
2013-07-29 02:47:00,66.3,66.0,30.00,SE,132,0.0,0.0,99,0.00,,,0.00,0,Wunderground v.1.15,2013-07-29 06:47:00,
2013-07-29 02:52:00,66.2,65.9,30.00,SE,132,0.0,0.0,99,0.00,,,0.00,0,Wunderground v.1.15,2013-07-29 06:52:00,
2013-07-29 02:57:00,66.3,66.0,30.00,SE,132,0.0,0.0,99,0.00,,,0.00,0,Wunderground v.1.15,2013-07-29 06:57:00,
2013-07-29 03:03:00,66.3,66.0,30.00,SE,132,0.0,0.0,99,0.00,,,0.00,0,Wunderground v.1.15,2013-07-29 07:03:00,
2013-07-29 03:08:00,66.3,66.0,30.00,SE,132,0.0,0.0,99,0.00,,,0.00,0,Wunderground v.1.15,2013-07-29 07:08:00,
2013-07-29 03:13:00,66.2,65.9,30.00,SE,132,0.0,0.0,99,0.00,,,0.00,0,Wunderground v.1.15,2013-07-29 07:13:00,
2013-07-29 03:18:00,66.2,65.9,30.00,SE,132,0.0,0.0,99,0.00,,,0.00,0,Wunderground v.1.15,2013-07-29 07:18:00,
2013-07-29 03:24:00,66.2,65.9,30.00,SE,132,0.0,0.0,99,0.00,,,0.00,0,Wunderground v.1.15,2013-07-29 07:24:00,
2013-07-29 03:29:00,66.3,66.0,30.00,SE,132,0.0,0.0,99,0.00,,,0.00,0,Wunderground v.1.15,2013-07-29 07:29:00,
2013-07-29 03:35:00,66.3,66.0,30.01,SE,132,0.0,0.0,99,0.00,,,0.00,0,Wunderground v.1.15,2013-07-29 07:35:00,
2013-07-29 03:40:00,66.2,65.9,30.01,SE,132,0.0,0.0,99,0.00,,,0.00,0,Wunderground v.1.15,2013-07-29 07:40:00,
2013-07-29 03:46:00,66.2,65.9,30.02,SE,132,0.0,0.0,99,0.00,,,0.00,0,Wunderground v.1.15,2013-07-29 07:46:00,
2013-07-29 03:52:00,66.4,66.1,30.01,SE,132,0.0,0.0,99,0.00,,,0.00,0,Wunderground v.1.15,2013-07-29 07:52:00,
2013-07-29 03:57:00,66.4,66.1,30.01,SE,132,0.0,0.0,99,0.00,,,0.00,0,Wunderground v.1.15,2013-07-29 07:57:00,
2013-07-29 04:03:00,66.3,66.0,30.02,SE,132,0.0,0.0,99,0.00,,,0.00,0,Wunderground v.1.15,2013-07-29 08:03:00,
2013-07-29 04:08:00,66.3,66.0,30.02,SE,132,0.0,0.0,99,0.00,,,0.00,0,Wunderground v.1.15,2013-07-29 08:08:00,
2013-07-29 04:13:00,66.2,65.9,30.03,SE,132,0.0,0.0,99,0.00,,,0.00,0,Wunderground v.1.15,2013-07-29 08:13:00,
2013-07-29 04:19:00,66.3,66.0,30.03,SE,132,0.0,0.0,99,0.00,,,0.00,0,Wunderground v.1.15,2013-07-29 08:19:00,
2013-07-29 04:24:00,66.3,66.0,30.03,SE,132,0.0,0.0,99,0.00,,,0.00,0,Wunderground v.1.15,2013-07-29 08:24:00,
2013-07-29 04:30:00,66.3,66.0,30.03,SE,132,0.0,0.0,99,0.00,,,0.00,0,Wunderground v.1.15,2013-07-29 08:30:00,
2013-07-29 04:35:00,66.3,66.0,30.03,SE,132,0.0,0.0,99,0.00,,,0.00,0,Wunderground v.1.15,2013-07-29 08:35:00,
2013-07-29 04:40:00,66.4,66.1,30.03,SE,132,0.0,0.0,99,0.00,,,0.00,0,Wunderground v.1.15,2013-07-29 08:40:00,
2013-07-29 04:46:00,66.4,66.1,30.03,SE,132,0.0,0.0,99,0.00,,,0.00,0,Wunderground v.1.15,2013-07-29 08:46:00,
2013-07-29 04:51:00,66.6,66.3,30.03,SE,132,0.0,0.0,99,0.00,,,0.00,0,Wunderground v.1.15,2013-07-29 08:51:00,
2013-07-29 04:57:00,66.5,66.2,30.03,SE,132,0.0,0.0,99,0.00,,,0.00,0,Wunderground v.1.15,2013-07-29 08:57:00,
2013-07-29 05:02:00,66.5,66.2,30.03,SE,132,0.0,0.0,99,0.00,,,0.00,0,Wunderground v.1.15,2013-07-29 09:02:00,
2013-07-29 05:08:00,66.6,66.3,30.03,SE,132,0.0,0.0,99,0.00,,,0.00,0,Wunderground v.1.15,2013-07-29 09:08:00,
2013-07-29 05:13:00,66.5,66.2,30.02,SE,132,0.0,0.0,99,0.00,,,0.00,0,Wunderground v.1.15,2013-07-29 09:13:00,
2013-07-29 05:19:00,66.5,66.2,30.02,SE,132,0.0,0.0,99,0.00,,,0.00,0,Wunderground v.1.15,2013-07-29 09:19:00,
2013-07-29 05:24:00,66.5,66.2,30.02,SE,132,0.0,0.0,99,0.00,,,0.00,0,Wunderground v.1.15,2013-07-29 09:24:00,
2013-07-29 05:29:00,66.4,66.1,30.02,SE,132,0.0,0.0,99,0.00,,,0.00,0,Wunderground v.1.15,2013-07-29 09:29:00,
2013-07-29 05:34:00,66.3,66.0,30.02,SE,132,0.0,0.0,99,0.00,,,0.00,0,Wunderground v.1.15,2013-07-29 09:34:00,
2013-07-29 05:40:00,66.1,65.8,30.01,SE,132,0.0,0.0,99,0.00,,,0.00,0,Wunderground v.1.15,2013-07-29 09:40:00,
2013-07-29 05:46:00,65.9,65.6,30.01,SE,132,0.0,0.0,99,0.00,,,0.00,5,Wunderground v.1.15,2013-07-29 09:46:00,
2013-07-29 05:51:00,65.9,65.6,30.01,SE,132,0.0,0.0,99,0.00,,,0.00,5,Wunderground v.1.15,2013-07-29 09:51:00,
2013-07-29 05:57:00,65.9,65.6,30.01,SE,132,0.0,0.0,99,0.00,,,0.00,7,Wunderground v.1.15,2013-07-29 09:57:00,
2013-07-29 06:04:00,65.9,65.6,30.01,SE,132,0.0,0.0,99,0.00,,,0.00,12,Wunderground v.1.15,2013-07-29 10:04:00,
2013-07-29 06:09:00,65.9,65.6,30.01,SE,132,0.0,0.0,99,0.00,,,0.00,12,Wunderground v.1.15,2013-07-29 10:09:00,
2013-07-29 06:15:00,66.0,65.7,30.02,SE,132,0.0,0.0,99,0.00,,,0.00,21,Wunderground v.1.15,2013-07-29 10:15:00,
2013-07-29 06:23:00,66.0,65.7,30.02,SE,132,0.0,0.0,99,0.00,,,0.00,19,Wunderground v.1.15,2013-07-29 10:23:00,
2013-07-29 06:28:00,66.0,65.7,30.02,SE,132,0.0,0.0,99,0.00,,,0.00,21,Wunderground v.1.15,2013-07-29 10:28:00,
2013-07-29 06:34:00,66.1,65.8,30.02,SE,132,0.0,0.0,99,0.00,,,0.00,21,Wunderground v.1.15,2013-07-29 10:34:00,
2013-07-29 06:39:00,66.1,65.8,30.02,SE,132,0.0,0.0,99,0.00,,,0.00,18,Wunderground v.1.15,2013-07-29 10:39:00,
2013-07-29 06:45:00,66.3,66.0,30.02,SE,132,0.0,0.0,99,0.00,,,0.00,28,Wunderground v.1.15,2013-07-29 10:45:00,
2013-07-29 06:51:00,66.5,66.2,30.02,SE,132,0.0,0.0,99,0.00,,,0.00,32,Wunderground v.1.15,2013-07-29 10:51:00,
2013-07-29 06:56:00,66.6,66.3,30.03,SE,132,0.0,0.0,99,0.00,,,0.00,39,Wunderground v.1.15,2013-07-29 10:56:00,
2013-07-29 07:02:00,66.9,66.6,30.03,SE,132,0.0,0.0,99,0.00,,,0.00,69,Wunderground v.1.15,2013-07-29 11:02:00,
2013-07-29 07:09:00,68.4,68.1,30.03,SE,132,0.0,0.0,99,0.00,,,0.00,72,Wunderground v.1.15,2013-07-29 11:09:00,
2013-07-29 07:14:00,69.2,68.9,30.03,SE,132,0.0,0.0,99,0.00,,,0.00,77,Wunderground v.1.15,2013-07-29 11:14:00,
2013-07-29 07:19:00,69.7,69.4,30.03,SE,146,0.0,1.0,99,0.00,,,0.00,79,Wunderground v.1.15,2013-07-29 11:19:00,
2013-07-29 07:25:00,70.0,70.0,30.03,SE,146,0.0,0.0,100,0.00,,,0.00,88,Wunderground v.1.15,2013-07-29 11:25:00,
2013-07-29 07:31:00,70.1,70.1,30.03,SE,146,0.0,0.0,100,0.00,,,0.00,62,Wunderground v.1.15,2013-07-29 11:31:00,
2013-07-29 07:36:00,70.3,70.0,30.03,SE,146,0.0,0.0,99,0.00,,,0.00,58,Wunderground v.1.15,2013-07-29 11:36:00,
2013-07-29 07:41:00,70.6,70.3,30.03,SE,146,0.0,1.0,99,0.00,,,0.00,79,Wunderground v.1.15,2013-07-29 11:41:00,
2013-07-29 07:46:00,71.0,70.7,30.03,SE,146,0.0,1.0,99,0.00,,,0.00,81,Wunderground v.1.15,2013-07-29 11:46:00,
2013-07-29 07:53:00,71.8,70.9,30.03,SE,142,0.0,1.0,97,0.00,,,0.00,100,Wunderground v.1.15,2013-07-29 11:53:00,
2013-07-29 07:59:00,72.1,70.6,30.03,SSE,165,0.0,1.0,95,0.00,,,0.00,135,Wunderground v.1.15,2013-07-29 11:59:00,
2013-07-29 08:05:00,72.8,71.0,30.03,WNW,298,1.0,1.0,94,0.00,,,0.00,134,Wunderground v.1.15,2013-07-29 12:05:00,
2013-07-29 08:11:00,73.4,71.3,30.03,WSW,257,0.0,2.0,93,0.00,,,0.00,132,Wunderground v.1.15,2013-07-29 12:11:00,
2013-07-29 08:17:00,73.3,70.8,30.03,SSE,151,0.0,3.0,92,0.00,,,0.00,135,Wunderground v.1.15,2013-07-29 12:17:00,
2013-07-29 08:22:00,73.3,70.8,30.03,SSE,147,1.0,2.0,92,0.00,,,0.00,109,Wunderground v.1.15,2013-07-29 12:22:00,
2013-07-29 08:27:00,73.3,70.8,30.03,SE,146,0.0,2.0,92,0.00,,,0.00,74,Wunderground v.1.15,2013-07-29 12:27:00,
2013-07-29 08:32:00,73.2,70.7,30.03,WNW,284,0.0,0.0,92,0.00,,,0.00,84,Wunderground v.1.15,2013-07-29 12:32:00,
2013-07-29 08:38:00,73.6,71.4,30.03,WNW,284,0.0,0.0,93,0.00,,,0.00,156,Wunderground v.1.15,2013-07-29 12:38:00,
2013-07-29 08:43:00,74.4,71.9,30.03,WNW,298,0.0,0.0,92,0.00,,,0.00,139,Wunderground v.1.15,2013-07-29 12:43:00,
2013-07-29 08:48:00,74.4,71.3,30.03,NW,311,0.0,3.0,90,0.00,,,0.00,155,Wunderground v.1.15,2013-07-29 12:48:00,
2013-07-29 08:54:00,74.5,71.4,30.03,WNW,301,1.0,2.0,90,0.00,,,0.00,192,Wunderground v.1.15,2013-07-29 12:54:00,
2013-07-29 08:59:00,74.9,71.4,30.03,WNW,290,1.0,4.0,89,0.00,,,0.00,146,Wunderground v.1.15,2013-07-29 12:59:00,
2013-07-29 09:04:00,75.1,71.6,30.03,South,185,0.0,1.0,89,0.00,,,0.00,132,Wunderground v.1.15,2013-07-29 13:04:00,
2013-07-29 09:09:00,75.2,71.1,30.03,South,173,0.0,0.0,87,0.00,,,0.00,227,Wunderground v.1.15,2013-07-29 13:09:00,
2013-07-29 09:15:00,75.7,71.6,30.03,SSE,158,0.0,0.0,87,0.00,,,0.00,114,Wunderground v.1.15,2013-07-29 13:15:00,
2013-07-29 09:20:00,76.1,71.9,30.03,South,177,0.0,0.0,87,0.00,,,0.00,253,Wunderground v.1.15,2013-07-29 13:20:00,
2013-07-29 09:27:00,76.0,72.2,30.03,ESE,108,0.0,1.0,88,0.00,,,0.00,114,Wunderground v.1.15,2013-07-29 13:27:00,
2013-07-29 09:33:00,75.7,71.6,30.03,WNW,290,0.0,1.0,87,0.00,,,0.00,132,Wunderground v.1.15,2013-07-29 13:33:00,
2013-07-29 09:38:00,75.6,72.1,30.03,WNW,300,0.0,1.0,89,0.00,,,0.00,130,Wunderground v.1.15,2013-07-29 13:38:00,
2013-07-29 09:44:00,75.7,71.6,30.03,WSW,244,0.0,1.0,87,0.00,,,0.00,121,Wunderground v.1.15,2013-07-29 13:44:00,
2013-07-29 09:50:00,76.5,73.0,30.03,WSW,244,0.0,0.0,89,0.00,,,0.00,130,Wunderground v.1.15,2013-07-29 13:50:00,
2013-07-29 09:56:00,76.8,72.3,30.03,SSE,150,0.0,2.0,86,0.00,,,0.00,142,Wunderground v.1.15,2013-07-29 13:56:00,
2013-07-29 10:01:00,76.5,72.3,30.04,West,273,0.0,2.0,87,0.00,,,0.00,135,Wunderground v.1.15,2013-07-29 14:01:00,
2013-07-29 10:08:00,76.8,72.3,30.03,WNW,296,0.0,2.0,86,0.00,,,0.00,206,Wunderground v.1.15,2013-07-29 14:08:00,
2013-07-29 10:13:00,76.9,72.0,30.04,SE,138,0.0,2.0,85,0.00,,,0.00,178,Wunderground v.1.15,2013-07-29 14:13:00,
2013-07-29 10:19:00,77.5,73.0,30.04,WNW,296,1.0,2.0,86,0.00,,,0.00,417,Wunderground v.1.15,2013-07-29 14:19:00,
2013-07-29 10:24:00,78.1,72.5,30.04,WNW,285,0.0,2.0,83,0.00,,,0.00,571,Wunderground v.1.15,2013-07-29 14:24:00,
2013-07-29 10:29:00,77.7,72.1,30.04,South,177,0.0,2.0,83,0.00,,,0.00,116,Wunderground v.1.15,2013-07-29 14:29:00,
2013-07-29 10:34:00,77.3,71.7,30.04,SE,144,0.0,2.0,83,0.00,,,0.00,127,Wunderground v.1.15,2013-07-29 14:34:00,
2013-07-29 10:40:00,77.8,72.2,30.04,SSW,195,0.0,0.0,83,0.00,,,0.01,791,Wunderground v.1.15,2013-07-29 14:40:00,
2013-07-29 10:45:00,78.5,72.2,30.05,SSE,154,1.0,2.0,81,0.00,,,0.01,791,Wunderground v.1.15,2013-07-29 14:45:00,
2013-07-29 10:50:00,78.4,72.4,30.04,SSE,152,1.0,1.0,82,0.00,,,0.01,482,Wunderground v.1.15,2013-07-29 14:50:00,
2013-07-29 10:55:00,78.3,72.0,30.05,SSE,149,1.0,2.0,81,0.00,,,0.01,359,Wunderground v.1.15,2013-07-29 14:55:00,
2013-07-29 11:01:00,78.7,72.0,30.04,South,189,1.0,1.0,80,0.00,,,0.01,782,Wunderground v.1.15,2013-07-29 15:01:00,
2013-07-29 11:08:00,79.3,72.6,30.05,South,173,1.0,2.0,80,0.00,,,0.01,840,Wunderground v.1.15,2013-07-29 15:08:00,
2013-07-29 11:14:00,79.4,71.9,30.05,South,188,1.0,2.0,78,0.00,,,0.01,793,Wunderground v.1.15,2013-07-29 15:14:00,
2013-07-29 11:20:00,79.1,72.4,30.05,South,188,1.0,2.0,80,0.00,,,0.01,285,Wunderground v.1.15,2013-07-29 15:20:00,
2013-07-29 11:26:00,79.1,71.6,30.05,SSE,152,1.0,4.0,78,0.00,,,0.01,703,Wunderground v.1.15,2013-07-29 15:26:00,
2013-07-29 11:32:00,79.1,72.8,30.05,SSW,196,2.0,2.0,81,0.00,,,0.01,686,Wunderground v.1.15,2013-07-29 15:32:00,
2013-07-29 11:37:00,79.3,72.2,30.05,SSE,164,1.0,4.0,79,0.00,,,0.01,784,Wunderground v.1.15,2013-07-29 15:37:00,
2013-07-29 11:43:00,79.4,71.6,30.05,SSW,196,1.0,3.0,77,0.00,,,0.01,691,Wunderground v.1.15,2013-07-29 15:43:00,
2013-07-29 11:48:00,79.3,72.2,30.05,South,187,1.0,3.0,79,0.00,,,0.01,698,Wunderground v.1.15,2013-07-29 15:48:00,
2013-07-29 11:53:00,79.3,72.2,30.05,South,182,1.0,3.0,79,0.00,,,0.01,698,Wunderground v.1.15,2013-07-29 15:53:00,
2013-07-29 11:58:00,79.5,73.2,30.04,SSE,160,1.0,3.0,81,0.00,,,0.01,698,Wunderground v.1.15,2013-07-29 15:58:00,
2013-07-29 12:05:00,79.9,72.0,30.04,ESE,109,0.0,2.0,77,0.00,,,0.01,230,Wunderground v.1.15,2013-07-29 16:05:00,
2013-07-29 12:10:00,79.8,72.3,30.04,SSE,150,1.0,1.0,78,0.00,,,0.01,216,Wunderground v.1.15,2013-07-29 16:10:00,
2013-07-29 12:15:00,79.4,71.9,30.04,SE,144,1.0,3.0,78,0.00,,,0.01,172,Wunderground v.1.15,2013-07-29 16:15:00,
2013-07-29 12:21:00,79.6,72.5,30.05,SSW,210,1.0,1.0,79,0.00,,,0.01,202,Wunderground v.1.15,2013-07-29 16:21:00,
2013-07-29 12:26:00,79.7,72.2,30.04,West,267,1.0,2.0,78,0.00,,,0.01,209,Wunderground v.1.15,2013-07-29 16:26:00,
2013-07-29 12:31:00,79.5,72.4,30.04,SSW,202,0.0,2.0,79,0.00,,,0.01,199,Wunderground v.1.15,2013-07-29 16:31:00,
2013-07-29 12:37:00,79.7,72.6,30.04,South,190,1.0,2.0,79,0.00,,,0.01,236,Wunderground v.1.15,2013-07-29 16:37:00,
2013-07-29 12:42:00,79.9,72.8,30.04,South,177,1.0,1.0,79,0.00,,,0.01,406,Wunderground v.1.15,2013-07-29 16:42:00,
2013-07-29 12:47:00,80.0,72.1,30.04,SE,135,1.0,2.0,77,0.00,,,0.01,436,Wunderground v.1.15,2013-07-29 16:47:00,
2013-07-29 12:53:00,80.0,71.8,30.04,SSE,150,2.0,3.0,76,0.00,,,0.01,186,Wunderground v.1.15,2013-07-29 16:53:00,
2013-07-29 12:59:00,80.3,72.0,30.04,SE,126,2.0,3.0,76,0.00,,,0.01,239,Wunderground v.1.15,2013-07-29 16:59:00,
2013-07-29 13:05:00,79.9,71.7,30.03,SE,139,2.0,4.0,76,0.00,,,0.01,239,Wunderground v.1.15,2013-07-29 17:05:00,
2013-07-29 13:11:00,79.2,71.7,30.03,South,179,2.0,3.0,78,0.00,,,0.01,225,Wunderground v.1.15,2013-07-29 17:11:00,
2013-07-29 13:16:00,79.2,71.7,30.03,ESE,112,2.0,3.0,78,0.00,,,0.01,135,Wunderground v.1.15,2013-07-29 17:16:00,
2013-07-29 13:21:00,79.2,72.5,30.03,South,175,2.0,2.0,80,0.00,,,0.01,134,Wunderground v.1.15,2013-07-29 17:21:00,
2013-07-29 13:26:00,79.5,72.0,30.03,SE,142,2.0,4.0,78,0.00,,,0.01,139,Wunderground v.1.15,2013-07-29 17:26:00,
2013-07-29 13:32:00,79.8,72.3,30.03,SSW,211,1.0,2.0,78,0.00,,,0.01,149,Wunderground v.1.15,2013-07-29 17:32:00,
2013-07-29 13:38:00,80.5,73.4,30.03,WNW,300,1.0,2.0,79,0.00,,,0.01,176,Wunderground v.1.15,2013-07-29 17:38:00,
2013-07-29 13:44:00,80.1,72.2,30.03,SSW,192,1.0,2.0,77,0.00,,,0.01,213,Wunderground v.1.15,2013-07-29 17:44:00,
2013-07-29 13:49:00,80.0,72.5,30.03,SE,130,1.0,2.0,78,0.00,,,0.01,132,Wunderground v.1.15,2013-07-29 17:49:00,
2013-07-29 13:55:00,80.2,73.1,30.03,SE,140,1.0,3.0,79,0.00,,,0.01,171,Wunderground v.1.15,2013-07-29 17:55:00,
2013-07-29 14:00:00,80.5,73.4,30.03,South,187,1.0,1.0,79,0.00,,,0.01,160,Wunderground v.1.15,2013-07-29 18:00:00,
2013-07-29 14:06:00,80.3,72.0,30.02,South,178,1.0,2.0,76,0.00,,,0.01,272,Wunderground v.1.15,2013-07-29 18:06:00,
2013-07-29 14:11:00,80.7,72.4,30.02,SSW,195,1.0,2.0,76,0.00,,,0.01,200,Wunderground v.1.15,2013-07-29 18:11:00,
2013-07-29 14:16:00,81.2,72.1,30.02,SW,233,1.0,2.0,74,0.00,,,0.01,223,Wunderground v.1.15,2013-07-29 18:16:00,
2013-07-29 14:22:00,80.3,72.0,30.03,SSW,213,1.0,3.0,76,0.00,,,0.01,241,Wunderground v.1.15,2013-07-29 18:22:00,
2013-07-29 14:28:00,79.4,72.3,30.03,SSE,155,1.0,3.0,79,0.00,,,0.01,243,Wunderground v.1.15,2013-07-29 18:28:00,
2013-07-29 14:34:00,79.3,73.0,30.03,SSW,211,1.0,1.0,81,0.00,,,0.01,232,Wunderground v.1.15,2013-07-29 18:34:00,
2013-07-29 14:40:00,79.3,73.0,30.03,WNW,303,1.0,4.0,81,0.00,,,0.01,209,Wunderground v.1.15,2013-07-29 18:40:00,
2013-07-29 14:45:00,79.5,73.2,30.03,South,190,1.0,4.0,81,0.00,,,0.01,188,Wunderground v.1.15,2013-07-29 18:45:00,
2013-07-29 14:50:00,79.3,72.2,30.02,SSW,192,1.0,1.0,79,0.00,,,0.01,199,Wunderground v.1.15,2013-07-29 18:50:00,
2013-07-29 14:58:00,79.0,73.0,30.02,SSE,159,1.0,3.0,82,0.00,,,0.01,179,Wunderground v.1.15,2013-07-29 18:58:00,
2013-07-29 15:03:00,78.8,72.1,30.02,ESE,120,1.0,2.0,80,0.00,,,0.01,195,Wunderground v.1.15,2013-07-29 19:03:00,
2013-07-29 15:09:00,78.4,72.4,30.02,SSE,152,1.0,1.0,82,0.00,,,0.01,229,Wunderground v.1.15,2013-07-29 19:09:00,
2013-07-29 15:16:00,78.5,72.5,30.02,South,175,1.0,2.0,82,0.00,,,0.01,190,Wunderground v.1.15,2013-07-29 19:16:00,
2013-07-29 15:23:00,78.7,73.1,30.02,South,174,1.0,1.0,83,0.00,,,0.01,269,Wunderground v.1.15,2013-07-29 19:23:00,
2013-07-29 15:28:00,78.7,72.7,30.02,SSE,155,1.0,1.0,82,0.00,,,0.01,169,Wunderground v.1.15,2013-07-29 19:28:00,
2013-07-29 15:34:00,78.3,72.3,30.02,South,185,1.0,2.0,82,0.00,,,0.01,165,Wunderground v.1.15,2013-07-29 19:34:00,
2013-07-29 15:39:00,78.2,72.6,30.02,SSE,167,1.0,1.0,83,0.00,,,0.01,297,Wunderground v.1.15,2013-07-29 19:39:00,
2013-07-29 15:45:00,78.5,72.9,30.02,South,180,1.0,2.0,83,0.00,,,0.01,234,Wunderground v.1.15,2013-07-29 19:45:00,
2013-07-29 15:52:00,78.6,73.0,30.02,South,191,1.0,2.0,83,0.00,,,0.01,343,Wunderground v.1.15,2013-07-29 19:52:00,
2013-07-29 15:57:00,79.3,73.3,30.02,ESE,114,1.0,2.0,82,0.00,,,0.01,343,Wunderground v.1.15,2013-07-29 19:57:00,
2013-07-29 16:02:00,79.0,73.0,30.02,SSW,202,1.0,2.0,82,0.00,,,0.01,383,Wunderground v.1.15,2013-07-29 20:02:00,
2013-07-29 16:08:00,79.3,73.3,30.01,South,185,1.0,2.0,82,0.00,,,0.01,478,Wunderground v.1.15,2013-07-29 20:08:00,
2013-07-29 16:14:00,79.7,73.7,30.01,South,189,1.0,5.0,82,0.00,,,0.01,606,Wunderground v.1.15,2013-07-29 20:14:00,
2013-07-29 16:20:00,80.1,73.4,30.01,SE,126,1.0,1.0,80,0.00,,,0.01,526,Wunderground v.1.15,2013-07-29 20:20:00,
2013-07-29 16:25:00,79.9,73.9,30.00,NNE,32,1.0,3.0,82,0.00,,,0.01,411,Wunderground v.1.15,2013-07-29 20:25:00,
2013-07-29 16:30:00,79.8,73.8,30.00,SSW,212,1.0,2.0,82,0.00,,,0.01,394,Wunderground v.1.15,2013-07-29 20:30:00,
2013-07-29 16:36:00,79.9,73.9,30.00,ESE,121,1.0,2.0,82,0.00,,,0.01,457,Wunderground v.1.15,2013-07-29 20:36:00,
2013-07-29 16:41:00,80.0,74.7,30.00,South,181,1.0,1.0,84,0.00,,,0.01,413,Wunderground v.1.15,2013-07-29 20:41:00,
2013-07-29 16:48:00,80.6,74.2,30.00,SSE,159,1.0,3.0,81,0.00,,,0.01,325,Wunderground v.1.15,2013-07-29 20:48:00,
2013-07-29 16:53:00,80.0,74.4,30.00,South,188,1.0,1.0,83,0.00,,,0.01,158,Wunderground v.1.15,2013-07-29 20:53:00,
2013-07-29 16:59:00,79.6,74.3,30.00,SSE,164,0.0,1.0,84,0.00,,,0.01,229,Wunderground v.1.15,2013-07-29 20:59:00,
2013-07-29 17:04:00,79.5,74.2,30.00,SE,144,0.0,3.0,84,0.00,,,0.01,468,Wunderground v.1.15,2013-07-29 21:04:00,
2013-07-29 17:10:00,79.2,74.3,30.00,SSE,153,1.0,1.0,85,0.00,,,0.01,216,Wunderground v.1.15,2013-07-29 21:10:00,
2013-07-29 17:15:00,79.0,74.1,30.00,South,180,1.0,3.0,85,0.00,,,0.01,547,Wunderground v.1.15,2013-07-29 21:15:00,
2013-07-29 17:20:00,78.8,73.9,30.00,SSE,154,1.0,1.0,85,0.00,,,0.01,366,Wunderground v.1.15,2013-07-29 21:20:00,
2013-07-29 17:25:00,78.7,74.2,30.00,SE,130,1.0,3.0,86,0.00,,,0.01,223,Wunderground v.1.15,2013-07-29 21:25:00,
2013-07-29 17:31:00,78.4,73.9,30.00,SSE,159,1.0,1.0,86,0.00,,,0.01,162,Wunderground v.1.15,2013-07-29 21:31:00,
2013-07-29 17:38:00,78.0,73.8,30.00,South,180,0.0,2.0,87,0.00,,,0.01,105,Wunderground v.1.15,2013-07-29 21:38:00,
2013-07-29 17:45:00,77.9,74.1,30.00,SE,134,0.0,2.0,88,0.00,,,0.01,105,Wunderground v.1.15,2013-07-29 21:45:00,
2013-07-29 17:51:00,77.6,73.8,30.00,South,190,0.0,2.0,88,0.00,,,0.01,95,Wunderground v.1.15,2013-07-29 21:51:00,
2013-07-29 17:58:00,77.5,74.0,30.00,South,179,0.0,2.0,89,0.00,,,0.01,183,Wunderground v.1.15,2013-07-29 21:58:00,
2013-07-29 18:03:00,77.5,74.0,30.00,South,175,0.0,1.0,89,0.00,,,0.01,104,Wunderground v.1.15,2013-07-29 22:03:00,
2013-07-29 18:08:00,77.1,73.6,30.00,SSW,207,1.0,2.0,89,0.00,,,0.01,113,Wunderground v.1.15,2013-07-29 22:08:00,
2013-07-29 18:17:00,77.2,73.7,30.00,SSE,163,0.0,1.0,89,0.00,,,0.01,93,Wunderground v.1.15,2013-07-29 22:17:00,
2013-07-29 18:23:00,77.1,73.9,30.00,West,276,1.0,1.0,90,0.00,,,0.01,70,Wunderground v.1.15,2013-07-29 22:23:00,
2013-07-29 18:28:00,76.9,73.7,30.00,SE,146,0.0,2.0,90,0.00,,,0.01,125,Wunderground v.1.15,2013-07-29 22:28:00,
2013-07-29 18:33:00,76.8,73.6,30.00,South,176,0.0,1.0,90,0.00,,,0.01,63,Wunderground v.1.15,2013-07-29 22:33:00,
2013-07-29 18:39:00,76.7,73.5,30.00,South,177,0.0,1.0,90,0.00,,,0.01,132,Wunderground v.1.15,2013-07-29 22:39:00,
2013-07-29 18:45:00,76.6,73.4,30.00,South,186,0.0,0.0,90,0.00,,,0.01,47,Wunderground v.1.15,2013-07-29 22:45:00,
2013-07-29 18:50:00,76.5,73.3,30.01,SSW,193,0.0,0.0,90,0.00,,,0.01,49,Wunderground v.1.15,2013-07-29 22:50:00,
2013-07-29 18:56:00,76.3,73.5,30.01,SSW,193,0.0,0.0,91,0.00,,,0.01,54,Wunderground v.1.15,2013-07-29 22:56:00,
2013-07-29 19:01:00,76.2,73.4,30.01,SSW,193,0.0,0.0,91,0.00,,,0.01,54,Wunderground v.1.15,2013-07-29 23:01:00,
2013-07-29 19:07:00,76.0,73.2,30.01,SSE,148,0.0,0.0,91,0.00,,,0.01,47,Wunderground v.1.15,2013-07-29 23:07:00,
2013-07-29 19:13:00,75.8,73.0,30.01,South,173,0.0,0.0,91,0.00,,,0.01,51,Wunderground v.1.15,2013-07-29 23:13:00,
2013-07-29 19:18:00,75.6,73.1,30.01,South,182,0.0,1.0,92,0.00,,,0.01,49,Wunderground v.1.15,2013-07-29 23:18:00,
2013-07-29 19:23:00,75.4,72.9,30.01,SE,140,0.0,2.0,92,0.00,,,0.01,51,Wunderground v.1.15,2013-07-29 23:23:00,
2013-07-29 19:29:00,75.3,72.8,30.01,South,184,0.0,2.0,92,0.00,,,0.01,47,Wunderground v.1.15,2013-07-29 23:29:00,
2013-07-29 19:34:00,75.3,73.1,30.01,South,180,0.0,1.0,93,0.00,,,0.01,40,Wunderground v.1.15,2013-07-29 23:34:00,
2013-07-29 19:39:00,75.2,73.0,30.01,SSW,195,0.0,1.0,93,0.00,,,0.01,32,Wunderground v.1.15,2013-07-29 23:39:00,
2013-07-29 19:44:00,75.1,72.9,30.01,SSE,151,0.0,1.0,93,0.00,,,0.01,21,Wunderground v.1.15,2013-07-29 23:44:00,
2013-07-29 19:50:00,75.0,72.8,30.01,South,175,0.0,0.0,93,0.00,,,0.01,12,Wunderground v.1.15,2013-07-29 23:50:00,
2013-07-29 19:56:00,74.8,72.6,30.01,South,179,0.0,1.0,93,0.00,,,0.01,9,Wunderground v.1.15,2013-07-29 23:56:00,
2013-07-29 20:02:00,74.6,72.4,30.02,South,179,0.0,1.0,93,0.00,,,0.01,0,Wunderground v.1.15,2013-07-30 00:02:00,
2013-07-29 20:07:00,74.4,72.6,30.02,South,178,0.0,1.0,94,0.00,,,0.01,0,Wunderground v.1.15,2013-07-30 00:07:00,
2013-07-29 20:13:00,74.2,72.4,30.02,West,267,0.0,0.0,94,0.00,,,0.01,0,Wunderground v.1.15,2013-07-30 00:13:00,
2013-07-29 20:19:00,74.1,72.3,30.02,SSE,155,0.0,1.0,94,0.00,,,0.01,0,Wunderground v.1.15,2013-07-30 00:19:00,
2013-07-29 20:24:00,73.9,72.1,30.02,SSE,156,0.0,0.0,94,0.00,,,0.01,0,Wunderground v.1.15,2013-07-30 00:24:00,
2013-07-29 20:30:00,73.8,72.0,30.02,SSE,167,0.0,0.0,94,0.00,,,0.01,0,Wunderground v.1.15,2013-07-30 00:30:00,
2013-07-29 20:36:00,73.7,71.9,30.03,SSE,161,0.0,0.0,94,0.00,,,0.01,0,Wunderground v.1.15,2013-07-30 00:36:00,
2013-07-29 20:43:00,73.6,72.1,30.03,SSE,162,0.0,0.0,95,0.00,,,0.01,0,Wunderground v.1.15,2013-07-30 00:43:00,
2013-07-29 20:48:00,73.5,72.0,30.03,SSE,163,0.0,0.0,95,0.00,,,0.01,0,Wunderground v.1.15,2013-07-30 00:48:00,
2013-07-29 20:53:00,73.4,71.6,30.03,SSE,163,0.0,1.0,94,0.00,,,0.01,0,Wunderground v.1.15,2013-07-30 00:53:00,
2013-07-29 20:58:00,73.4,71.9,30.03,SSE,163,0.0,1.0,95,0.00,,,0.01,0,Wunderground v.1.15,2013-07-30 00:58:00,
2013-07-29 21:04:00,73.3,71.8,30.04,SSE,164,0.0,1.0,95,0.00,,,0.01,0,Wunderground v.1.15,2013-07-30 01:04:00,
2013-07-29 21:09:00,73.3,71.5,30.04,South,181,0.0,1.0,94,0.00,,,0.01,0,Wunderground v.1.15,2013-07-30 01:09:00,
2013-07-29 21:15:00,73.2,71.7,30.04,South,181,0.0,0.0,95,0.00,,,0.01,0,Wunderground v.1.15,2013-07-30 01:15:00,
2013-07-29 21:21:00,73.1,71.3,30.04,SSE,163,0.0,0.0,94,0.00,,,0.01,0,Wunderground v.1.15,2013-07-30 01:21:00,
2013-07-29 21:27:00,73.1,71.3,30.04,South,172,0.0,0.0,94,0.00,,,0.01,0,Wunderground v.1.15,2013-07-30 01:27:00,
2013-07-29 21:32:00,73.1,71.3,30.04,South,177,0.0,1.0,94,0.00,,,0.01,0,Wunderground v.1.15,2013-07-30 01:32:00,
2013-07-29 21:38:00,73.1,71.3,30.04,SSE,157,0.0,1.0,94,0.00,,,0.01,0,Wunderground v.1.15,2013-07-30 01:38:00,
2013-07-29 21:43:00,73.1,71.6,30.04,SSE,168,0.0,0.0,95,0.00,,,0.01,0,Wunderground v.1.15,2013-07-30 01:43:00,
2013-07-29 21:48:00,73.0,71.5,30.04,SSE,168,0.0,1.0,95,0.00,,,0.01,0,Wunderground v.1.15,2013-07-30 01:48:00,
2013-07-29 21:53:00,73.0,71.5,30.05,SE,144,0.0,0.0,95,0.00,,,0.01,0,Wunderground v.1.15,2013-07-30 01:53:00,
2013-07-29 21:59:00,72.9,71.1,30.05,SSE,153,0.0,1.0,94,0.00,,,0.01,0,Wunderground v.1.15,2013-07-30 01:59:00,
2013-07-29 22:04:00,72.9,71.1,30.04,SSE,149,0.0,1.0,94,0.00,,,0.01,0,Wunderground v.1.15,2013-07-30 02:04:00,
2013-07-29 22:10:00,72.8,71.0,30.04,SSE,155,0.0,0.0,94,0.00,,,0.01,0,Wunderground v.1.15,2013-07-30 02:10:00,
2013-07-29 22:16:00,72.7,71.2,30.04,SSE,155,0.0,0.0,95,0.00,,,0.01,0,Wunderground v.1.15,2013-07-30 02:16:00,
2013-07-29 22:21:00,72.6,71.1,30.04,SSE,155,0.0,0.0,95,0.00,,,0.01,0,Wunderground v.1.15,2013-07-30 02:21:00,
2013-07-29 22:25:00,72.6,71.1,30.04,SSE,157,0.0,0.0,95,0.00,,,0.01,0,Wunderground v.1.15,2013-07-30 02:25:00,
2013-07-29 22:31:00,72.5,71.0,30.04,SSE,157,0.0,0.0,95,0.00,,,0.01,0,Wunderground v.1.15,2013-07-30 02:31:00,
2013-07-29 22:38:00,72.4,70.9,30.04,SSE,158,0.0,0.0,95,0.00,,,0.01,0,Wunderground v.1.15,2013-07-30 02:38:00,
2013-07-29 22:44:00,72.3,70.8,30.04,SSE,158,0.0,0.0,95,0.00,,,0.01,0,Wunderground v.1.15,2013-07-30 02:44:00,
2013-07-29 22:49:00,72.2,70.7,30.04,SSE,158,0.0,0.0,95,0.00,,,0.01,0,Wunderground v.1.15,2013-07-30 02:49:00,
2013-07-29 22:55:00,72.1,70.6,30.04,SSE,158,0.0,0.0,95,0.00,,,0.01,0,Wunderground v.1.15,2013-07-30 02:55:00,
2013-07-29 23:00:00,72.0,70.5,30.04,SSE,158,0.0,0.0,95,0.00,,,0.01,0,Wunderground v.1.15,2013-07-30 03:00:00,
2013-07-29 23:06:00,71.9,70.7,30.04,SSE,158,0.0,1.0,96,0.00,,,0.01,0,Wunderground v.1.15,2013-07-30 03:06:00,
2013-07-29 23:12:00,71.8,70.6,30.04,SSE,158,0.0,0.0,96,0.00,,,0.01,0,Wunderground v.1.15,2013-07-30 03:12:00,
2013-07-29 23:18:00,71.7,70.5,30.04,SSE,158,0.0,0.0,96,0.00,,,0.01,0,Wunderground v.1.15,2013-07-30 03:18:00,
2013-07-29 23:23:00,71.7,70.5,30.04,SSE,158,0.0,0.0,96,0.00,,,0.01,0,Wunderground v.1.15,2013-07-30 03:23:00,
2013-07-29 23:29:00,71.7,70.5,30.05,SSE,158,0.0,0.0,96,0.00,,,0.01,0,Wunderground v.1.15,2013-07-30 03:29:00,
2013-07-29 23:35:00,71.6,70.4,30.05,SSE,158,0.0,0.0,96,0.00,,,0.01,0,Wunderground v.1.15,2013-07-30 03:35:00,
2013-07-29 23:44:00,71.4,70.2,30.05,SSE,158,0.0,0.0,96,0.00,,,0.01,0,Wunderground v.1.15,2013-07-30 03:44:00,
2013-07-29 23:50:00,71.3,70.1,30.05,SSE,158,0.0,0.0,96,0.00,,,0.01,0,Wunderground v.1.15,2013-07-30 03:50:00,
2013-07-29 23:56:00,71.1,69.9,30.04,SSE,158,0.0,0.0,96,0.00,,,0.01,0,Wunderground v.1.15,2013-07-30 03:56:00,